User: anonymous   Login
Location: Koslow
(50.3020°N, 18.5663°E)
Time: 14:10:26
(UTC+00:00)
Language:

Spot 4 Rocket - Orbit

View from above orbital plane
View from above orbital plane
View from above satellite
View from above satellite

Ground track
Ground track

The orbit data is extracted from the following two-line orbital elements,

1 25261U 98017B   21163.17145149  .00000073  00000-0  42381-4 0  9998
2 25261  98.7392 129.3342 0004488 106.4674 253.7004 14.33919089213646
Epoch (UTC): 12 June 2021 04:06:53
Eccentricity: 0.0004488
inclination: 98.7392°
perigee height: 775 km
apogee height: 782 km
right ascension of ascending node: 129.3342°
argument of perigee: 106.4674°
revolutions per day: 14.33919089
mean anomaly at epoch: 253.7004°
orbit number at epoch: 21364

The dashed part of the orbit path shows where the satellite is in the earth's shadow,  

DLR